Location: site
(53.0000°N, 23.0500°E)
Time: 19:25:53
(UTC+01:00)

SAOCOM 1-A - Pass Details

Date: 05 December 2020
Orbit: 621 x 623 km, 97.9° (Epoch: 24 January)

Event Time Altitude Azimuth Distance (km) Brightness Sun altitude
Exits shadow 16:35:08 14° 91° (E) 1,742 ? -11.6°
Drops below altitude 10° 16:37:11 10° 119° (ESE) 1,995 ? -11.8°
Sets 16:40:21 0° 145° (SE) 2,894 ? -12.3°
